Seldovia, AK

3:21 AM AKDT on June 28, 2017 (GMT -0800)
Seldovia

Weather History for PASO - June, 2014

Change the Weather History Date:

Saturday, June 7, 2014

  Actual Average (PAHO) Record (PAHO)
Temperature  
Mean Temperature 48 °F -  
Max Temperature 51 °F 54 °F 68 °F (1936)
Min Temperature 45 °F 40 °F 30 °F (1947)
Degree Days  
Heating Degree Days 17    
Moisture  
Dew Point 47 °F    
Average Humidity 98    
Maximum Humidity 100    
Minimum Humidity 89    
Precipitation  
Precipitation 0.25 in - - ()
Sea Level Pressure  
Sea Level Pressure 29.67 in    
Wind  
Wind Speed 1 mph (NE)    
Max Wind Speed 10 mph    
Max Gust Speed 21 mph    
Visibility 9 miles    
Events Rain    
Averages and records for this station are not official NWS values.
T = Trace of Precipitation, MM = Missing Value Source: NWS Daily Summary

Daily Weather History Graph

Daily Weather History Graph

Search for Another Location

Airport or City:

Trip Planner

Search our weather history database for the weather conditions in past years. The results will help you decide how hot, cold, wet, or windy it might be!

Date:

Astronomy

Jun. 07, 2014 Rise Set
Actual Time 4:54 AM AKDT 11:18 PM AKDT
Civil Twilight 3:29 AM AKDT 12:43 AM AKDT
Nautical Twilight Sun does not set Sun does not set
Astronomical Twilight Sun does not set Sun does not set
Moon 4:23 PM AKDT (6/7) 2:51 AM AKDT (6/7)
Length of Visible Light 21h 14m
Length of Day
18h 24m
Waxing Gibbous, 69% of the Moon is Illuminated
Jun 7
Waxing Gibbous
Jun 12
Full
Jun 19
Last Quarter
Jun 27
New
Jul 5
First Quarter

Hourly Weather History & Observations

Time (AKDT) Temp. Windchill Dew Point Humidity Pressure Visibility Wind Dir Wind Speed Gust Speed Precip Events Conditions
12:53 AM 46.0 °F 43.9 °F 46.0 °F 100% 29.78 in 10.0 mi NNE 4.6 mph - 0.03 in Rain Light Rain
1:53 AM 46.0 °F 44.8 °F 46.0 °F 100% 29.77 in 10.0 mi North 3.5 mph - 0.00 in   Overcast
2:53 AM 46.0 °F - 46.0 °F 100% 29.76 in 10.0 mi Calm Calm - 0.01 in Rain Light Rain
3:53 AM 46.0 °F - 46.0 °F 100% 29.74 in 10.0 mi Calm Calm - 0.00 in   Overcast
4:53 AM 46.0 °F - 46.0 °F 100% 29.73 in 10.0 mi Calm Calm - N/A   Overcast
5:53 AM 46.0 °F - 46.0 °F 100% 29.71 in 10.0 mi Calm Calm - 0.00 in   Overcast
7:17 AM 46.4 °F - 46.4 °F 100% 29.70 in 9.0 mi Calm Calm - 0.00 in Rain Light Rain
7:53 AM 46.9 °F - 46.9 °F 100% 29.69 in 10.0 mi Calm Calm - 0.01 in Rain Light Rain
8:44 AM 46.4 °F - 46.4 °F 100% 29.69 in 10.0 mi Calm Calm - 0.02 in Rain Light Rain
8:53 AM 46.9 °F - 46.9 °F 100% 29.69 in 10.0 mi Calm Calm - 0.02 in Rain Light Rain
9:09 AM 46.4 °F - 46.4 °F 100% 29.68 in 10.0 mi Calm Calm - 0.01 in Rain Light Rain
9:38 AM 48.2 °F - 46.4 °F 93% 29.67 in 10.0 mi Calm Calm - 0.01 in   Overcast
9:53 AM 46.9 °F - 46.0 °F 97% 29.68 in 10.0 mi North 3.5 mph - 0.01 in   Overcast
10:03 AM 46.4 °F - 46.4 °F 100% 29.67 in 10.0 mi Calm Calm - 0.00 in Rain Light Rain
10:10 AM 46.4 °F - 46.4 °F 100% 29.67 in 10.0 mi Calm Calm - 0.00 in   Overcast
10:53 AM 48.0 °F - 46.9 °F 96% 29.66 in 10.0 mi Calm Calm - 0.00 in   Overcast
11:53 AM 50.0 °F - 48.0 °F 93% 29.65 in 10.0 mi NNE 4.6 mph - 0.00 in   Overcast
12:53 PM 48.9 °F - 46.9 °F 93% 29.64 in 10.0 mi Calm Calm - N/A   Overcast
1:53 PM 50.0 °F - 46.9 °F 89% 29.64 in 10.0 mi Calm Calm - N/A   Overcast
2:53 PM 50.0 °F - 46.9 °F 89% 29.64 in 10.0 mi Calm Calm - N/A   Overcast
3:53 PM 50.0 °F - 48.0 °F 93% 29.64 in 7.0 mi Calm Calm - 0.03 in Rain Light Rain
4:53 PM 48.9 °F - 48.0 °F 97% 29.64 in 8.0 mi Calm Calm - 0.01 in Rain Light Rain
5:53 PM 50.0 °F - 50.0 °F 100% 29.63 in 10.0 mi Calm Calm - 0.03 in Rain Light Rain
6:53 PM 50.0 °F - 48.9 °F 96% 29.63 in 10.0 mi Calm Calm - 0.00 in Rain Light Rain
7:53 PM 50.0 °F - 50.0 °F 100% 29.63 in 8.0 mi Calm Calm - 0.04 in Rain Light Rain
8:53 PM 48.9 °F - 48.9 °F 100% 29.63 in 6.0 mi Calm Calm - 0.01 in Rain Light Rain
9:08 PM 48.2 °F - 48.2 °F 100% 29.63 in 6.0 mi Calm Calm - 0.01 in Rain Light Rain
9:15 PM 48.2 °F - 48.2 °F 100% 29.63 in 5.0 mi Calm Calm - 0.02 in Rain Light Rain
9:46 PM 48.2 °F - 48.2 °F 100% 29.63 in 8.0 mi Calm Calm - 0.02 in Rain Light Rain
9:53 PM 48.9 °F - 48.9 °F 100% 29.64 in 7.0 mi Calm Calm - 0.03 in Rain Light Rain
10:00 PM 48.2 °F - 48.2 °F 100% 29.64 in 7.0 mi Calm Calm - 0.00 in Rain Light Rain
10:24 PM 46.4 °F 41.5 °F 46.4 °F 100% 29.66 in 8.0 mi South 10.4 mph 20.7 mph 0.02 in Rain Light Rain
10:53 PM 46.0 °F 44.8 °F 46.0 °F 100% 29.67 in 10.0 mi Variable 3.5 mph - 0.02 in   Overcast
11:53 PM 45.0 °F 42.6 °F 43.0 °F 93% 29.69 in 10.0 mi SSE 4.6 mph - 0.00 in Rain Light Rain